Voltar ao catálogo

SL-16 DEB

AtivoLEO
NORAD 22361·DEBRIS·🇷🇺 Russia

Lançado Dec 25, 1992 de Baikonur Cosmodrome

Loading…

Próximas Passagens (próximas 24 horas)

TLE

AtualizadoSource: Space-Track

Época: Sep 14, 2026, 13:15 UTC

1 22361U 92093BA  26257.55242559  .00000153  00000-0  16351-3 0  9994
2 22361  70.7635  96.3613 0183259 176.5842 214.8863 13.81459276695078

Acompanhe SL-16 DEB em tempo real com AllMySat

Download on the App Store